TIME,DELAY(SENSOR),PRES,OXYGEN,RAWTEMP,T(OPTODE),TCPHASE,FLUOR,BETA(BETA700),BETA(BETA412),BETA(BETA440),CDOM,C(CSC),ED(ED411.90),ED(ED443.80),ED(ED489.40),ED(ED554.70),LU(LU412.20),LU(LU443.80),LU(LU489.40),LU(LU555.00),COMP,TILTX,TILTY,CHECK
1355263907,5806,852.0999755859375000,160.6356048583984400,429.1343994140625000,9.7127628326416020,39.3984184265136700,52,102,52,57,63,12855,2146958299,2147515008,2147288155,2147504530,2147090121,2146928109,2147706779,2147124160,487,-1,8,55718
1355267503,5805,965.6300048828125000,195.8054962158203000,501.0914001464844000,7.4956312179565430,38.1792716979980500,52,104,52,57,64,12857,2146964178,2147517540,2147293165,2147518098,2147088740,2146920868,2147722148,2147120585,2028,-1,9,18380
1355271103,5806,978.2899780273438000,207.1103973388672000,510.2291870117187500,7.2117881774902340,37.6469993591308600,51,99,53,56,65,12830,2146961691,2147516086,2147292845,2147519268,2147092745,2146924589,2147721307,2147123520,564,-1,8,21436
1355274703,5805,978.7800292968750000,210.9107971191406200,512.6680908203125000,7.1359348297119140,37.4654617309570300,52,99,52,57,64,12859,2146961737,2147518610,2147293842,2147520996,2147090413,2146924032,2147721069,2147120000,3213,-1,8,53861
1355278303,5806,987.2700195312500000,210.8117980957031200,512.8958740234375000,7.1288461685180660,37.4750709533691400,51,97,53,56,63,12857,2146961956,2147517357,2147293385,2147519268,2147086418,2146925760,2147718043,2147120393,454,-1,8,11088
1355281903,5805,982.5700073242188000,212.6044006347656200,515.2968139648438000,7.0541300773620605,37.4127616882324200,52,100,53,56,64,12853,2146958619,2147518948,2147295414,2147520749,2147091712,2146926262,2147722267,2147122669,3533,0,8,51508
1355285503,5805,987.8099975585938000,214.9373931884765600,516.4935302734375000,7.0168738365173340,37.2996101379394500,51,100,53,56,64,12856,2146963428,2147518857,2147295853,2147522121,2147089728,2146923062,2147723328,2147121636,3136,-1,8,41950
1355289103,5804,983.2700195312500000,214.3529968261718800,518.1903076171875000,6.9640288352966310,37.3630981445312500,52,101,53,56,64,12845,2146960713,2147517696,2147295835,2147519241,2147092297,2146922285,2147720100,2147123730,3560,-1,8,5696
1355292703,5806,983.7600097656250000,214.8296051025390600,519.8350219726562000,6.9127888679504395,37.3655090332031250,52,102,54,57,64,12849,2146962276,2147514221,2147295378,2147520009,2147091437,2146923565,2147721865,2147120201,3457,-1,8,7435
1355296303,5804,988.9699707031250000,215.8233947753906200,519.8101196289062000,6.9135661125183105,37.3075103759765600,52,98,53,56,64,12839,2146960813,2147517275,2147297856,2147520100,2147090944,2146928036,2147724534,2147122386,3336,-1,8,64931
1355299903,5806,992.2299804687500000,215.1000061035156200,518.5206298828125000,6.9537391662597660,37.3261909484863300,52,99,52,57,64,12848,2146961490,2147513252,2147296356,2147521792,2147092041,2146921289,2147721517,2147122121,3467,-1,9,59975
1355303503,5808,994.4899902343750000,214.0921936035156200,518.2913208007812000,6.9608840942382810,37.3800811767578100,51,100,52,57,65,12848,2146962258,2147516324,2147296310,2147522898,2147092699,2146917760,2147719881,2147121645,114,-1,8,17284
1355307103,5807,994.3599853515625000,214.6127014160156200,517.9011230468750000,6.9730391502380370,37.3431015014648440,52,98,52,56,64,12846,2146962304,2147518454,2147297691,2147520484,2147090806,2146923675,2147721645,2147119652,899,-1,8,25896
1355310703,5808,993.5800170898438000,214.8565063476562500,518.1317749023438000,6.9658517837524410,37.3331489562988300,52,99,53,55,64,12843,2146960512,2147516352,2147295424,2147518774,2147090752,2146921947,2147721152,2147122889,133,-1,8,57668
1355314303,5807,990.8499755859375000,213.1376953125000000,518.5994262695312000,6.9512839317321780,37.4407081604003900,51,100,53,55,65,12839,2146964498,2147514093,2147295094,2147519314,2147091108,2146921005,2147720045,2147125549,65,0,8,47909
1355317903,5809,995.6400146484375000,213.2546997070312500,518.1057739257812000,6.9666600227355960,37.4254188537597660,52,102,53,57,64,12839,2146962432,2147515766,2147299227,2147521124,2147086162,2146924260,2147718052,2147123026,3596,-1,9,50351
1355321503,5807,994.0100097656250000,213.4375000000000000,518.2592163085938000,6.9618840217590330,37.4171218872070300,52,99,52,56,64,12838,2146959533,2147515876,2147300717,2147522633,2147091474,2146919131,2147721654,2147121636,524,-1,8,56120
1355325103,5807,991.7299804687500000,213.1018066406250000,519.4635009765625000,6.9243640899658200,37.4580192565918000,52,99,53,54,64,12838,2146961216,2147517613,2147297718,2147521243,2147092571,2146916370,2147722669,2147126564,3351,-1,8,11287
1355328703,5806,992.2800292968750000,214.7008972167968800,519.3444824218750000,6.9280719757080080,37.3634910583496100,51,100,54,55,63,12838,2146962770,2147513380,2147295826,2147519744,2147092260,2146920164,2147722560,2147125449,3085,-1,8,7442
1355332303,5806,995.0399780273438000,214.1950988769531200,518.3491210937500000,6.9590821266174320,37.3746490478515600,51,100,52,55,64,12836,2146961636,2147515803,2147294802,2147525046,2147091602,2146923821,2147720429,2147123282,3300,-1,8,13532
1355335903,5804,999.7000122070312000,214.0310058593750000,517.9270019531250000,6.9722309112548830,37.3772697448730500,51,99,51,55,65,12821,2146964041,2147516937,2147295268,2147521627,2147090998,2146920960,2147720347,2147122642,3506,-1,8,5689
1355339503,5808,999.7199707031250000,214.1269073486328000,518.0468750000000000,6.9684967994689940,37.3740501403808600,52,98,52,56,64,12835,2146963721,2147516233,2147296301,2147517696,2147090724,2146919844,2147718637,2147120265,184,-1,8,63299
1355343103,5804,1004.3900146484375000,214.1119995117187500,516.8372802734375000,7.0061659812927250,37.3536605834960940,52,100,53,56,64,12832,2146963282,2147517696,2147295003,2147520786,2147090596,2146920356,2147719881,2147119817,2956,-1,9,5361
1355346703,5805,1001.9500122070312000,213.2156066894531200,516.7216186523438000,7.0097718238830570,37.4027900695800800,52,98,53,55,64,12831,2146963904,2147514678,2147293293,2147518921,2147090505,2146926061,2147720475,2147123190,3512,-1,8,64059
1355350303,5806,992.3499755859375000,213.3018035888672000,519.3433837890625000,6.9281058311462400,37.4439392089843750,52,99,53,56,63,12833,2146961225,2147514898,2147298944,2147516882,2147089600,2146924214,2147719990,2147123117,3060,-1,9,63877
1355353903,5809,993.0100097656250000,217.0942993164062500,521.3651733398438000,6.8650960922241210,37.2629814147949200,51,98,52,55,63,12820,2146960457,2147516964,2147300224,2147520301,2147089920,2146925952,2147716406,2147125376,3582,-1,8,27169
1355357503,5807,995.1500244140625000,217.7366027832031200,521.7562866210938000,6.8529028892517090,37.2331199645996100,52,99,54,56,64,12807,2146959067,2147516790,2147296457,2147519250,2147089124,2146921170,2147723785,2147124544,206,-1,8,9889
1355361103,5808,995.3499755859375000,217.5063934326172000,521.4055175781250000,6.8638420104980470,37.2402000427246100,51,103,52,56,64,12815,2146966171,2147512822,2147295881,2147521627,2147087972,2146919268,2147728731,2147120758,539,-1,8,57694
1355364703,5807,993.9699707031250000,217.7725067138672000,521.7205810546875000,6.8540182113647460,37.2310295104980500,52,101,53,56,64,12817,2146960969,2147516708,2147295652,2147519222,2147090916,2146921590,2147724288,2147126253,718,-1,8,15495
1355368303,5806,998.0300292968750000,215.4532012939453000,521.1149291992188000,6.8729000091552730,37.3522911071777340,52,103,51,59,64,12813,2146963108,2147514285,2147296941,2147522614,2147093248,2146923520,2147721133,2147123602,3536,-1,8,36100
1355371903,5806,997.5900268554688000,214.5744018554687500,519.7017822265625000,6.9169387817382810,37.3769302368164060,52,100,53,55,64,12807,2146963940,2147517595,2147295195,2147520384,2147092013,2146921389,2147722697,2147121426,21,-1,8,58747
1355375503,5804,1001.1799926757812000,214.9105072021484400,519.6224975585938000,6.9194102287292480,37.3569984436035160,51,99,54,56,64,12817,2146959012,2147517714,2147299629,2147518198,2147089389,2146923812,2147718601,2147121508,3532,0,9,31418
1355379103,5807,1000.0000000000000000,213.9237976074218800,519.8218994140625000,6.9131970405578610,37.4172096252441400,52,100,53,57,64,12814,2146962093,2147516013,2147299053,2147515309,2147091401,2146925083,2147720237,2147123300,3592,0,8,43175
1355382703,5808,999.4000244140625000,215.1634979248047000,519.4411010742188000,6.9250621795654300,37.3389396667480500,51,99,51,56,65,12814,2146962569,2147517293,2147297188,2147519222,2147090112,2146924425,2147721508,2147122861,42,-1,8,57715
1355386303,5809,997.1699829101562000,215.2427978515625000,519.5598754882812000,6.9213609695434570,37.3361396789550800,52,99,52,56,65,12813,2146962752,2147518454,2147294226,2147516982,2147089965,2146924589,2147724224,2147123931,126,-1,8,54653
1355389903,5804,995.2600097656250000,216.1799011230468800,521.1757812500000000,6.8709988594055180,37.3110694885253900,52,100,52,56,64,12813,2146962596,2147514130,2147294034,2147518820,2147091565,2146921563,2147725787,2147122834,3297,-1,8,23171
1355393503,5803,996.2999877929688000,215.1405029296875000,521.1716918945312000,6.8711290359497070,37.3710403442382800,52,113,53,56,64,12809,2146963657,2147516406,2147294500,2147519579,2147090377,2146921243,2147720704,2147122962,3311,-1,8,42921
1355397103,5804,998.3400268554688000,214.8359985351562500,521.1212768554688000,6.8726987838745120,37.3877105712890600,51,100,52,57,63,12809,2146963218,2147518454,2147296448,2147519497,2147091867,2146918729,2147717586,2147124032,3288,-1,8,56836
1355400703,5808,1002.5300292968750000,217.7254028320312500,521.5936279296875000,6.8579759597778320,37.2312889099121100,52,119,52,56,65,12808,2146961910,2147516516,2147295433,2147524086,2147091693,2146922011,2147726454,2147122340,2696,-1,8,57677
1355404303,5754,997.2899780273438000,217.3650970458984400,521.7322998046875000,6.8536529541015625,37.2534904479980500,51,99,52,56,65,12808,2146961170,2147518089,2147296237,2147519734,2147092461,2146917979,2147720109,2147123492,3289,-1,9,56846
1355407903,5806,999.0300292968750000,217.7142028808593800,521.9196166992188000,6.8478140830993650,37.2374992370605500,51,99,52,56,63,12810,2146962678,2147517531,2147293156,2147516132,2147091346,2146925997,2147723227,2147121490,3357,-1,9,34811
1355408754,5806,1002.2999877929688000,217.7826995849609400,521.3496704101562000,6.8655800819396970,37.2239913940429700,52,101,52,57,64,12826,2146958198,2147521664,2147296438,2147520521,2147092626,2146921664,2147721307,2147122166,3244,-1,8,62854
